User: anonymous   Login
Location: 5810 Zion Rd, Cleves, OH 45002, USA
(39.1922°N, 84.7113°W)
Time: 05:55:21
(UTC-05:00)
Language:

CAS-4A - Orbit

View from above orbital plane
View from above orbital plane
View from above satellite
View from above satellite

Ground track
Ground track

The orbit data is extracted from the following two-line orbital elements,

1 42761U 17034D   20021.17446275  .00000038  00000-0  15800-4 0  9995
2 42761  43.0182 121.0792 0011075 183.9551 251.7744 15.09802338143555
Epoch (UTC): 21 January 2020 04:11:13
Eccentricity: 0.0011075
inclination: 43.0182°
perigee height: 529 km
apogee height: 544 km
right ascension of ascending node: 121.0792°
argument of perigee: 183.9551°
revolutions per day: 15.09802338
mean anomaly at epoch: 251.7744°
orbit number at epoch: 14355

The dashed part of the orbit path shows where the satellite is in the earth's shadow,  

DLR